Check out our new BloomSky Weather System.

Active alerts

Galveston, TX
  Details for Galveston, TX Coastal Flood Advisory  +2 additional alerts
Houston, TX
  Details for Houston, TX Flash Flood Watch
Fort Bend, TX
  Details for Fort Bend, TX Flash Flood Watch


Thunder radar  blitzortung!


Rain radar more information rain snow radar


Visit our other weather sites:

Template documentation
and downloads

And another site



Weather Underground History page Text

Daily Summary for April 29, 2017 Units:  English    Metric   Both
« Previous Day
Next Day »
Daily Weekly Monthly Yearly Custom
  High: Low: Average:
Temperature: TemperatureF °F 67.6 °F 80.9 °F
Dew Point: DewpointF °F 62.2 °F 76 °F
Humidity: Humidity % 77 % 85 %
Wind Speed: WindSpeedMPH mph 2.0 mph 9 mph
Wind Gust: WindSpeedGustMPH mph - -
Wind:- - SSE
Pressure: PressureIn in 29.55 in -
Precipitation: 0.00 in    
Historical Graphs
 
 
Tabular Data for April 29, 2017
Time Temperature Dew Point Pressure Wind Wind Speed Wind Gust Humidity Rainfall Rate (Hourly)
TemperatureF °F DewpointF °F PressureIn in Calm     Humidity % HourlyPrecipIn in
00:03 80.4 °F 75.9 °F 29.68 in SSE 10.0 mph 16.0 mph 86 % 0.00 in
00:08 80.2 °F 75.7 °F 29.68 in SE 9.0 mph 16.0 mph 86 % 0.00 in
00:13 80.2 °F 75.7 °F 29.68 in SE 6.0 mph 15.0 mph 86 % 0.00 in
00:18 80.2 °F 75.7 °F 29.68 in SSE 5.0 mph 15.0 mph 86 % 0.00 in
00:23 80.1 °F 75.6 °F 29.68 in ESE 14.0 mph 14.0 mph 86 % 0.00 in
00:28 80.1 °F 75.6 °F 29.68 in SE 8.0 mph 14.0 mph 86 % 0.00 in
00:33 80.1 °F 75.6 °F 29.68 in SSE 7.0 mph 14.0 mph 86 % 0.00 in
00:38 80.1 °F 75.6 °F 29.67 in ESE 9.0 mph 15.0 mph 86 % 0.00 in
00:43 80.2 °F 75.7 °F 29.67 in SE 7.0 mph 17.0 mph 86 % 0.00 in
00:48 80.2 °F 75.7 °F 29.67 in SE 13.0 mph 17.0 mph 86 % 0.00 in
00:53 80.2 °F 76.1 °F 29.67 in SSE 8.0 mph 17.0 mph 87 % 0.00 in
00:58 80.2 °F 75.7 °F 29.67 in SE 13.0 mph 16.0 mph 86 % 0.00 in
01:03 80.2 °F 76.1 °F 29.67 in East 7.0 mph 14.0 mph 87 % 0.00 in
01:08 80.2 °F 75.7 °F 29.67 in SE 7.0 mph 14.0 mph 86 % 0.00 in
01:13 80.2 °F 75.7 °F 29.66 in SSE 4.0 mph 19.0 mph 86 % 0.00 in
01:18 80.2 °F 75.7 °F 29.66 in SSE 11.0 mph 19.0 mph 86 % 0.00 in
01:23 80.2 °F 75.7 °F 29.66 in East 7.0 mph 19.0 mph 86 % 0.00 in
01:28 80.2 °F 76.1 °F 29.66 in SE 5.0 mph 19.0 mph 87 % 0.00 in
01:33 80.2 °F 76.1 °F 29.66 in South 4.0 mph 19.0 mph 87 % 0.00 in
01:38 80.2 °F 75.7 °F 29.66 in East 10.0 mph 19.0 mph 86 % 0.00 in
01:43 80.2 °F 75.7 °F 29.66 in SE 12.0 mph 17.0 mph 86 % 0.00 in
01:48 80.2 °F 76.1 °F 29.66 in South 10.0 mph 20.0 mph 87 % 0.00 in
01:53 80.2 °F 76.1 °F 29.66 in ESE 9.0 mph 20.0 mph 87 % 0.00 in
01:58 80.2 °F 76.1 °F 29.65 in ESE 16.0 mph 20.0 mph 87 % 0.00 in
02:03 80.2 °F 76.1 °F 29.65 in SSE 5.0 mph 22.0 mph 87 % 0.00 in
02:04 80.2 °F 76.1 °F 29.65 in SSE 6.0 mph 22.0 mph 87 % 0.00 in
02:09 80.2 °F 76.1 °F 29.65 in ESE 15.0 mph 22.0 mph 87 % 0.00 in
02:14 80.2 °F 76.1 °F 29.65 in SSE 9.0 mph 22.0 mph 87 % 0.00 in
02:19 80.2 °F 76.1 °F 29.65 in SE 10.0 mph 16.0 mph 87 % 0.00 in
02:24 80.2 °F 76.1 °F 29.65 in SE 7.0 mph 20.0 mph 87 % 0.00 in
02:29 80.2 °F 76.1 °F 29.65 in SE 6.0 mph 20.0 mph 87 % 0.00 in
02:34 80.2 °F 76.1 °F 29.65 in ESE 5.0 mph 20.0 mph 87 % 0.00 in
02:40 80.2 °F 76.1 °F 29.65 in SSE 9.0 mph 19.0 mph 87 % 0.00 in
02:45 80.2 °F 76.1 °F 29.65 in SSE 4.0 mph 18.0 mph 87 % 0.00 in
02:50 80.2 °F 76.1 °F 29.65 in SE 8.0 mph 18.0 mph 87 % 0.00 in
02:55 80.2 °F 76.1 °F 29.64 in SE 6.0 mph 18.0 mph 87 % 0.00 in
03:00 80.2 °F 76.1 °F 29.64 in SE 7.0 mph 20.0 mph 87 % 0.00 in
03:05 80.1 °F 75.9 °F 29.64 in South 12.0 mph 20.0 mph 87 % 0.00 in
03:10 80.2 °F 76.1 °F 29.64 in SE 5.0 mph 20.0 mph 87 % 0.00 in
03:15 80.2 °F 76.1 °F 29.64 in SSE 10.0 mph 17.0 mph 87 % 0.00 in
03:20 80.2 °F 76.1 °F 29.63 in SSE 14.0 mph 17.0 mph 87 % 0.00 in
03:25 80.2 °F 76.1 °F 29.64 in East 12.0 mph 19.0 mph 87 % 0.00 in
03:30 80.2 °F 76.1 °F 29.64 in SE 7.0 mph 22.0 mph 87 % 0.00 in
03:35 80.1 °F 75.6 °F 29.64 in SE 7.0 mph 24.0 mph 86 % 0.00 in
03:40 80.1 °F 75.6 °F 29.64 in SE 8.0 mph 24.0 mph 86 % 0.00 in
03:45 80.2 °F 75.7 °F 29.64 in SE 5.0 mph 24.0 mph 86 % 0.00 in
03:50 80.2 °F 75.7 °F 29.64 in SSE 3.0 mph 21.0 mph 86 % 0.00 in
03:55 80.2 °F 75.7 °F 29.64 in ESE 7.0 mph 21.0 mph 86 % 0.00 in
04:00 80.1 °F 75.6 °F 29.64 in SE 9.0 mph 17.0 mph 86 % 0.00 in
04:05 80.2 °F 75.7 °F 29.64 in SE 7.0 mph 17.0 mph 86 % 0.00 in
04:10 80.2 °F 75.7 °F 29.64 in ESE 8.0 mph 17.0 mph 86 % 0.00 in
04:15 80.2 °F 75.7 °F 29.64 in ESE 8.0 mph 18.0 mph 86 % 0.00 in
04:20 80.2 °F 76.1 °F 29.64 in SE 7.0 mph 18.0 mph 87 % 0.00 in
04:25 80.2 °F 76.1 °F 29.64 in SE 9.0 mph 18.0 mph 87 % 0.00 in
04:30 80.2 °F 76.1 °F 29.64 in SSE 7.0 mph 18.0 mph 87 % 0.00 in
04:35 80.1 °F 75.9 °F 29.64 in ENE 7.0 mph 18.0 mph 87 % 0.00 in
04:40 80.1 °F 75.9 °F 29.64 in South 7.0 mph 18.0 mph 87 % 0.00 in
04:45 80.1 °F 75.9 °F 29.64 in East 6.0 mph 18.0 mph 87 % 0.00 in
04:50 80.1 °F 75.9 °F 29.64 in SE 7.0 mph 18.0 mph 87 % 0.00 in
04:55 80.1 °F 75.9 °F 29.64 in South 6.0 mph 18.0 mph 87 % 0.00 in
04:56 80.1 °F 75.9 °F 29.64 in SE 7.0 mph 18.0 mph 87 % 0.00 in
05:01 80.1 °F 75.9 °F 29.64 in ESE 15.0 mph 15.0 mph 87 % 0.00 in
05:06 80.1 °F 75.9 °F 29.64 in ESE 14.0 mph 20.0 mph 87 % 0.00 in
05:11 80.1 °F 75.9 °F 29.64 in SSE 13.0 mph 20.0 mph 87 % 0.00 in
05:16 79.9 °F 75.7 °F 29.64 in SSE 12.0 mph 20.0 mph 87 % 0.00 in
05:21 79.9 °F 75.7 °F 29.64 in South 4.0 mph 16.0 mph 87 % 0.00 in
05:26 79.9 °F 75.7 °F 29.65 in East 8.0 mph 15.0 mph 87 % 0.00 in
05:31 79.9 °F 75.7 °F 29.65 in East 10.0 mph 15.0 mph 87 % 0.00 in
05:36 79.9 °F 75.7 °F 29.65 in South 6.0 mph 20.0 mph 87 % 0.00 in
05:41 79.7 °F 75.6 °F 29.65 in SE 10.0 mph 20.0 mph 87 % 0.00 in
05:46 79.9 °F 75.7 °F 29.65 in SSE 5.0 mph 20.0 mph 87 % 0.00 in
05:51 79.7 °F 75.6 °F 29.65 in ESE 5.0 mph 16.0 mph 87 % 0.00 in
05:56 79.7 °F 75.6 °F 29.65 in ESE 3.0 mph 16.0 mph 87 % 0.00 in
06:01 79.5 °F 75.6 °F 29.65 in East 6.0 mph 11.0 mph 88 % 0.00 in
06:06 79.5 °F 75.6 °F 29.65 in SSE 8.0 mph 11.0 mph 88 % 0.00 in
06:08 79.5 °F 75.6 °F 29.65 in SE 4.0 mph 11.0 mph 88 % 0.00 in
06:13 79.5 °F 75.6 °F 29.65 in SSE 11.0 mph 16.0 mph 88 % 0.00 in
06:18 79.3 °F 75.6 °F 29.65 in SSE 5.0 mph 16.0 mph 88 % 0.00 in
06:23 79.3 °F 75.6 °F 29.65 in SE 5.0 mph 16.0 mph 88 % 0.00 in
06:28 79.3 °F 75.6 °F 29.65 in ESE 8.0 mph 15.0 mph 88 % 0.00 in
06:33 79.3 °F 75.6 °F 29.66 in SSE 4.0 mph 14.0 mph 88 % 0.00 in
06:38 79.3 °F 75.6 °F 29.66 in SE 4.0 mph 13.0 mph 88 % 0.00 in
06:43 79.3 °F 75.6 °F 29.66 in ESE 6.0 mph 13.0 mph 88 % 0.00 in
06:48 79.3 °F 75.6 °F 29.66 in SSE 6.0 mph 13.0 mph 88 % 0.00 in
06:53 79.3 °F 75.6 °F 29.66 in SE 7.0 mph 13.0 mph 88 % 0.00 in
06:58 79.5 °F 75.6 °F 29.66 in South 8.0 mph 16.0 mph 88 % 0.00 in
07:03 79.5 °F 75.6 °F 29.66 in SE 10.0 mph 16.0 mph 88 % 0.00 in
07:08 79.5 °F 75.6 °F 29.66 in SSE 8.0 mph 16.0 mph 88 % 0.00 in
07:13 79.5 °F 75.4 °F 29.66 in ESE 5.0 mph 15.0 mph 87 % 0.00 in
07:18 79.5 °F 75.4 °F 29.66 in SE 9.0 mph 15.0 mph 87 % 0.00 in
07:23 79.7 °F 75.6 °F 29.66 in SSE 14.0 mph 14.0 mph 87 % 0.00 in
07:28 79.7 °F 75.6 °F 29.66 in South 12.0 mph 18.0 mph 87 % 0.00 in
07:33 79.9 °F 75.7 °F 29.66 in SE 9.0 mph 18.0 mph 87 % 0.00 in
07:38 79.9 °F 75.7 °F 29.66 in SSE 10.0 mph 20.0 mph 87 % 0.00 in
07:43 79.9 °F 75.7 °F 29.66 in ESE 6.0 mph 20.0 mph 87 % 0.00 in
07:48 79.9 °F 75.7 °F 29.66 in ESE 7.0 mph 20.0 mph 87 % 0.00 in
07:53 79.9 °F 75.7 °F 29.66 in South 7.0 mph 17.0 mph 87 % 0.00 in
07:58 79.9 °F 75.7 °F 29.66 in SE 8.0 mph 17.0 mph 87 % 0.00 in
08:03 80.1 °F 75.9 °F 29.66 in SE 6.0 mph 17.0 mph 87 % 0.00 in
08:08 80.1 °F 75.9 °F 29.66 in SSE 8.0 mph 17.0 mph 87 % 0.00 in
08:13 80.1 °F 75.9 °F 29.66 in South 5.0 mph 14.0 mph 87 % 0.00 in
08:18 80.2 °F 76.1 °F 29.66 in SSE 9.0 mph 15.0 mph 87 % 0.00 in
08:23 80.2 °F 76.1 °F 29.66 in ESE 6.0 mph 15.0 mph 87 % 0.00 in
08:28 80.4 °F 75.9 °F 29.66 in SE 5.0 mph 15.0 mph 86 % 0.00 in
08:33 80.6 °F 76.1 °F 29.66 in SSE 7.0 mph 16.0 mph 86 % 0.00 in
08:38 80.8 °F 76.3 °F 29.65 in ESE 11.0 mph 18.0 mph 86 % 0.00 in
08:43 81.0 °F 76.5 °F 29.65 in SE 10.0 mph 18.0 mph 86 % 0.00 in
08:48 81.0 °F 76.1 °F 29.65 in ESE 10.0 mph 18.0 mph 85 % 0.00 in
08:53 81.1 °F 76.3 °F 29.66 in SSE 8.0 mph 23.0 mph 85 % 0.00 in
08:58 81.1 °F 76.3 °F 29.65 in ESE 15.0 mph 23.0 mph 85 % 0.00 in
09:03 81.1 °F 76.3 °F 29.65 in SSE 9.0 mph 23.0 mph 85 % 0.00 in
09:08 81.3 °F 76.5 °F 29.65 in SSE 10.0 mph 21.0 mph 85 % 0.00 in
09:13 81.3 °F 76.5 °F 29.65 in SE 12.0 mph 21.0 mph 85 % 0.00 in
09:18 81.3 °F 76.5 °F 29.65 in SSE 7.0 mph 21.0 mph 85 % 0.00 in
09:23 81.5 °F 76.5 °F 29.65 in SSE 10.0 mph 21.0 mph 85 % 0.00 in
09:28 81.7 °F 76.3 °F 29.65 in SW 16.0 mph 21.0 mph 84 % 0.00 in
09:30 81.7 °F 76.3 °F 29.65 in ESE 6.0 mph 22.0 mph 84 % 0.00 in
09:35 81.7 °F 76.3 °F 29.65 in SSE 12.0 mph 22.0 mph 84 % 0.00 in
09:40 81.9 °F 76.5 °F 29.65 in ESE 9.0 mph 22.0 mph 84 % 0.00 in
09:45 81.9 °F 76.5 °F 29.64 in SSW 18.0 mph 21.0 mph 84 % 0.00 in
09:50 82.0 °F 76.6 °F 29.65 in South 7.0 mph 22.0 mph 84 % 0.00 in
09:55 82.0 °F 76.6 °F 29.65 in SSE 11.0 mph 22.0 mph 84 % 0.00 in
10:00 82.2 °F 76.5 °F 29.65 in SSE 9.0 mph 22.0 mph 83 % 0.00 in
10:05 82.2 °F 76.5 °F 29.64 in East 8.0 mph 23.0 mph 83 % 0.00 in
10:10 82.2 °F 76.5 °F 29.64 in SE 14.0 mph 23.0 mph 83 % 0.00 in
10:15 82.2 °F 76.5 °F 29.64 in SSE 20.0 mph 23.0 mph 83 % 0.00 in
10:20 82.2 °F 76.8 °F 29.64 in SE 20.0 mph 21.0 mph 84 % 0.00 in
10:25 82.6 °F 77.2 °F 29.64 in SE 10.0 mph 21.0 mph 84 % 0.00 in
10:30 82.6 °F 76.8 °F 29.64 in East 12.0 mph 23.0 mph 83 % 0.00 in
10:35 82.6 °F 76.8 °F 29.64 in SSE 7.0 mph 23.0 mph 83 % 0.00 in
10:40 82.6 °F 76.8 °F 29.65 in SE 9.0 mph 23.0 mph 83 % 0.00 in
10:45 82.8 °F 77.0 °F 29.64 in South 13.0 mph 20.0 mph 83 % 0.00 in
10:50 82.9 °F 77.2 °F 29.65 in SW 11.0 mph 20.0 mph 83 % 0.00 in
10:55 83.1 °F 77.4 °F 29.65 in SSW 11.0 mph 31.0 mph 83 % 0.00 in
11:00 83.3 °F 77.2 °F 29.64 in ESE 16.0 mph 31.0 mph 82 % 0.00 in
11:05 83.5 °F 77.4 °F 29.65 in SSW 5.0 mph 31.0 mph 82 % 0.00 in
11:10 83.8 °F 77.4 °F 29.65 in SSW 12.0 mph 23.0 mph 81 % 0.00 in
11:15 83.8 °F 77.4 °F 29.65 in SE 10.0 mph 25.0 mph 81 % 0.00 in
11:20 83.8 °F 77.4 °F 29.65 in SE 16.0 mph 25.0 mph 81 % 0.00 in
11:25 84.0 °F 77.5 °F 29.65 in South 16.0 mph 25.0 mph 81 % 0.00 in
11:30 84.0 °F 77.5 °F 29.65 in SE 14.0 mph 23.0 mph 81 % 0.00 in
11:35 84.2 °F 77.7 °F 29.65 in South 12.0 mph 23.0 mph 81 % 0.00 in
11:40 84.2 °F 77.7 °F 29.65 in SSE 12.0 mph 23.0 mph 81 % 0.00 in
11:45 84.4 °F 77.9 °F 29.64 in SE 15.0 mph 21.0 mph 81 % 0.00 in
11:50 84.4 °F 77.9 °F 29.64 in ESE 6.0 mph 23.0 mph 81 % 0.00 in
11:55 84.4 °F 77.9 °F 29.63 in ESE 10.0 mph 27.0 mph 81 % 0.00 in
12:00 84.7 °F 77.9 °F 29.62 in East 21.0 mph 27.0 mph 80 % 0.00 in
12:05 84.7 °F 77.9 °F 29.63 in ESE 13.0 mph 27.0 mph 80 % 0.00 in
12:10 84.9 °F 78.1 °F 29.62 in ESE 11.0 mph 22.0 mph 80 % 0.00 in
12:15 84.9 °F 78.1 °F 29.63 in SSW 7.0 mph 22.0 mph 80 % 0.00 in
12:20 84.7 °F 77.5 °F 29.62 in SE 16.0 mph 24.0 mph 79 % 0.00 in
12:25 84.6 °F 77.7 °F 29.63 in SE 14.0 mph 24.0 mph 80 % 0.00 in
12:30 84.0 °F 77.5 °F 29.62 in SSW 10.0 mph 24.0 mph 81 % 0.00 in
12:35 83.8 °F 77.4 °F 29.62 in SE 7.0 mph 24.0 mph 81 % 0.00 in
12:40 83.7 °F 77.5 °F 29.62 in SSE 9.0 mph 24.0 mph 82 % 0.00 in
12:45 83.5 °F 77.4 °F 29.62 in ESE 17.0 mph 20.0 mph 82 % 0.00 in
12:50 83.5 °F 77.4 °F 29.62 in SE 8.0 mph 20.0 mph 82 % 0.00 in
12:55 83.5 °F 77.4 °F 29.62 in SSE 7.0 mph 20.0 mph 82 % 0.00 in
13:00 83.5 °F 77.4 °F 29.62 in SE 8.0 mph 17.0 mph 82 % 0.00 in
13:05 83.5 °F 77.4 °F 29.62 in ESE 16.0 mph 16.0 mph 82 % 0.00 in
13:10 83.5 °F 77.4 °F 29.61 in SE 8.0 mph 17.0 mph 82 % 0.00 in
13:15 83.3 °F 77.5 °F 29.61 in SE 11.0 mph 17.0 mph 83 % 0.00 in
13:20 83.3 °F 77.2 °F 29.61 in SSE 13.0 mph 17.0 mph 82 % 0.00 in
13:25 83.1 °F 77.0 °F 29.61 in SSW 11.0 mph 21.0 mph 82 % 0.00 in
13:30 83.1 °F 77.4 °F 29.61 in SSW 11.0 mph 21.0 mph 83 % 0.00 in
13:35 82.9 °F 77.2 °F 29.60 in SSE 16.0 mph 23.0 mph 83 % 0.00 in
13:39 82.9 °F 77.2 °F 29.60 in SSE 6.0 mph 23.0 mph 83 % 0.00 in
13:44 82.9 °F 77.2 °F 29.60 in ESE 12.0 mph 23.0 mph 83 % 0.00 in
13:49 82.9 °F 77.2 °F 29.60 in South 6.0 mph 23.0 mph 83 % 0.00 in
13:54 82.9 °F 77.2 °F 29.60 in SSE 14.0 mph 23.0 mph 83 % 0.00 in
13:59 82.9 °F 77.2 °F 29.59 in SSE 7.0 mph 21.0 mph 83 % 0.00 in
14:04 82.9 °F 77.5 °F 29.59 in SSE 16.0 mph 18.0 mph 84 % 0.00 in
14:09 82.9 °F 77.5 °F 29.60 in SSE 14.0 mph 18.0 mph 84 % 0.00 in
14:14 82.9 °F 77.5 °F 29.60 in SE 9.0 mph 18.0 mph 84 % 0.00 in
14:19 82.9 °F 77.5 °F 29.60 in ESE 11.0 mph 16.0 mph 84 % 0.00 in
14:24 82.8 °F 77.4 °F 29.60 in South 6.0 mph 16.0 mph 84 % 0.00 in
14:29 82.8 °F 77.4 °F 29.60 in SW 7.0 mph 20.0 mph 84 % 0.00 in
14:34 82.6 °F 77.2 °F 29.60 in SSE 7.0 mph 20.0 mph 84 % 0.00 in
14:39 82.4 °F 77.4 °F 29.60 in SSE 11.0 mph 20.0 mph 85 % 0.00 in
14:44 82.2 °F 77.2 °F 29.60 in South 8.0 mph 18.0 mph 85 % 0.00 in
14:49 82.2 °F 77.2 °F 29.60 in SSE 8.0 mph 17.0 mph 85 % 0.00 in
14:54 82.2 °F 77.2 °F 29.60 in ESE 6.0 mph 17.0 mph 85 % 0.00 in
14:55 82.2 °F 77.2 °F 29.60 in SSE 16.0 mph 21.0 mph 85 % 0.00 in
15:00 82.0 °F 77.0 °F 29.60 in SW 12.0 mph 21.0 mph 85 % 0.00 in
15:05 82.0 °F 77.4 °F 29.60 in SSE 11.0 mph 21.0 mph 86 % 0.00 in
15:10 81.9 °F 77.2 °F 29.60 in South 12.0 mph 17.0 mph 86 % 0.00 in
15:15 81.9 °F 77.2 °F 29.60 in SW 11.0 mph 17.0 mph 86 % 0.00 in
15:20 81.7 °F 77.0 °F 29.60 in SSE 10.0 mph 17.0 mph 86 % 0.00 in
15:25 81.7 °F 77.0 °F 29.60 in SE 15.0 mph 17.0 mph 86 % 0.00 in
15:30 81.7 °F 77.4 °F 29.60 in SE 9.0 mph 18.0 mph 87 % 0.00 in
15:35 81.7 °F 77.0 °F 29.60 in SSE 11.0 mph 18.0 mph 86 % 0.00 in
15:40 81.9 °F 77.2 °F 29.60 in ESE 7.0 mph 18.0 mph 86 % 0.00 in
15:45 81.9 °F 77.2 °F 29.60 in SSE 10.0 mph 15.0 mph 86 % 0.00 in
15:50 81.9 °F 77.2 °F 29.59 in SSE 11.0 mph 18.0 mph 86 % 0.00 in
16:00 82.0 °F 77.4 °F 29.59 in SE 9.0 mph 21.0 mph 86 % 0.00 in
16:05 82.0 °F 77.4 °F 29.59 in SSE 9.0 mph 21.0 mph 86 % 0.00 in
16:10 82.0 °F 77.4 °F 29.59 in ESE 12.0 mph 18.0 mph 86 % 0.00 in
16:15 81.9 °F 77.2 °F 29.60 in SE 7.0 mph 20.0 mph 86 % 0.00 in
16:20 81.7 °F 77.4 °F 29.60 in SE 9.0 mph 20.0 mph 87 % 0.00 in
16:25 81.7 °F 77.7 °F 29.60 in SE 4.0 mph 20.0 mph 88 % 0.00 in
16:30 81.9 °F 77.5 °F 29.59 in SE 8.0 mph 15.0 mph 87 % 0.00 in
16:35 81.9 °F 77.5 °F 29.59 in SSE 14.0 mph 16.0 mph 87 % 0.00 in
16:40 81.9 °F 77.5 °F 29.59 in South 5.0 mph 16.0 mph 87 % 0.00 in
16:45 82.0 °F 77.7 °F 29.58 in SSE 13.0 mph 19.0 mph 87 % 0.00 in
16:50 82.4 °F 78.1 °F 29.58 in SE 9.0 mph 19.0 mph 87 % 0.00 in
16:55 82.6 °F 77.9 °F 29.58 in ESE 7.0 mph 19.0 mph 86 % 0.00 in
17:00 82.6 °F 77.5 °F 29.58 in SSE 11.0 mph 17.0 mph 85 % 0.00 in
17:05 82.6 °F 77.5 °F 29.58 in SSW 8.0 mph 17.0 mph 85 % 0.00 in
17:10 82.8 °F 77.7 °F 29.58 in East 15.0 mph 16.0 mph 85 % 0.00 in
17:15 82.8 °F 77.4 °F 29.58 in South 12.0 mph 17.0 mph 84 % 0.00 in
17:20 82.9 °F 77.5 °F 29.58 in SE 14.0 mph 17.0 mph 84 % 0.00 in
17:25 83.1 °F 77.4 °F 29.57 in South 10.0 mph 18.0 mph 83 % 0.00 in
17:30 83.1 °F 77.0 °F 29.57 in SE 10.0 mph 20.0 mph 82 % 0.00 in
17:35 83.1 °F 77.0 °F 29.57 in SSE 9.0 mph 20.0 mph 82 % 0.00 in
17:40 83.1 °F 77.0 °F 29.57 in South 9.0 mph 20.0 mph 82 % 0.00 in
17:45 83.1 °F 77.0 °F 29.57 in SSW 13.0 mph 20.0 mph 82 % 0.00 in
17:50 82.9 °F 76.8 °F 29.57 in SE 15.0 mph 20.0 mph 82 % 0.00 in
17:55 83.1 °F 77.0 °F 29.57 in SE 11.0 mph 17.0 mph 82 % 0.00 in
18:00 83.1 °F 77.0 °F 29.57 in SE 13.0 mph 17.0 mph 82 % 0.00 in
18:05 82.9 °F 76.5 °F 29.57 in SSE 12.0 mph 17.0 mph 81 % 0.00 in
18:10 82.9 °F 76.5 °F 29.57 in SE 8.0 mph 18.0 mph 81 % 0.00 in
18:13 82.8 °F 76.6 °F 29.56 in SE 10.0 mph 18.0 mph 82 % 0.00 in
18:18 82.8 °F 76.6 °F 29.56 in SSE 7.0 mph 18.0 mph 82 % 0.00 in
18:23 82.8 °F 76.3 °F 29.56 in SSE 6.0 mph 18.0 mph 81 % 0.00 in
18:28 82.8 °F 76.6 °F 29.56 in SE 11.0 mph 20.0 mph 82 % 0.00 in
18:33 82.6 °F 76.5 °F 29.56 in SE 8.0 mph 20.0 mph 82 % 0.00 in
18:38 82.6 °F 76.5 °F 29.56 in SSE 15.0 mph 21.0 mph 82 % 0.00 in
18:43 82.6 °F 76.5 °F 29.57 in SE 6.0 mph 22.0 mph 82 % 0.00 in
18:48 82.4 °F 76.3 °F 29.56 in SE 19.0 mph 22.0 mph 82 % 0.00 in
18:53 82.2 °F 76.1 °F 29.56 in SE 5.0 mph 22.0 mph 82 % 0.00 in
18:58 82.0 °F 75.9 °F 29.56 in SSE 22.0 mph 22.0 mph 82 % 0.00 in
19:03 82.0 °F 76.3 °F 29.55 in SE 14.0 mph 23.0 mph 83 % 0.00 in
19:08 82.0 °F 76.3 °F 29.56 in SE 11.0 mph 23.0 mph 83 % 0.00 in
19:09 81.9 °F 76.1 °F 29.56 in SE 9.0 mph 23.0 mph 83 % 0.00 in
19:14 81.9 °F 76.1 °F 29.56 in South 7.0 mph 23.0 mph 83 % 0.00 in
19:19 81.9 °F 76.1 °F 29.56 in SE 7.0 mph 20.0 mph 83 % 0.00 in
19:24 81.7 °F 75.9 °F 29.56 in ESE 12.0 mph 21.0 mph 83 % 0.00 in
19:29 81.7 °F 75.9 °F 29.56 in SSW 18.0 mph 21.0 mph 83 % 0.00 in
19:34 81.7 °F 75.9 °F 29.56 in South 6.0 mph 21.0 mph 83 % 0.00 in
19:39 81.5 °F 75.9 °F 29.56 in South 7.0 mph 19.0 mph 83 % 0.00 in
19:44 81.5 °F 75.9 °F 29.55 in SSW 9.0 mph 19.0 mph 83 % 0.00 in
19:49 81.3 °F 75.7 °F 29.56 in SSW 6.0 mph 19.0 mph 83 % 0.00 in
19:54 81.3 °F 75.7 °F 29.56 in SSE 13.0 mph 19.0 mph 83 % 0.00 in
19:59 81.3 °F 75.7 °F 29.56 in SE 9.0 mph 20.0 mph 83 % 0.00 in
20:04 81.1 °F 75.6 °F 29.57 in SSE 7.0 mph 20.0 mph 83 % 0.00 in
20:05 81.1 °F 75.6 °F 29.57 in ESE 9.0 mph 20.0 mph 83 % 0.00 in
20:10 81.1 °F 75.6 °F 29.57 in South 13.0 mph 24.0 mph 83 % 0.00 in
20:15 81.1 °F 75.6 °F 29.57 in SSE 11.0 mph 24.0 mph 83 % 0.00 in
20:20 81.1 °F 75.6 °F 29.57 in South 6.0 mph 24.0 mph 83 % 0.00 in
20:25 81.1 °F 75.6 °F 29.58 in ESE 16.0 mph 23.0 mph 83 % 0.00 in
20:30 81.0 °F 75.4 °F 29.58 in South 12.0 mph 23.0 mph 83 % 0.00 in
20:35 81.0 °F 75.4 °F 29.59 in SSE 3.0 mph 17.0 mph 83 % 0.00 in
20:40 81.0 °F 75.4 °F 29.60 in South 7.0 mph 17.0 mph 83 % 0.00 in
20:45 81.0 °F 75.4 °F 29.60 in SE 4.0 mph 14.0 mph 83 % 0.00 in
20:50 81.0 °F 75.7 °F 29.60 in SE 4.0 mph 13.0 mph 84 % 0.00 in
20:55 81.0 °F 75.7 °F 29.61 in South 10.0 mph 13.0 mph 84 % 0.00 in
21:00 81.0 °F 75.7 °F 29.62 in SE 8.0 mph 13.0 mph 84 % 0.00 in
21:05 81.0 °F 75.7 °F 29.62 in SSW 8.0 mph 13.0 mph 84 % 0.00 in
21:10 81.0 °F 75.7 °F 29.63 in SSE 6.0 mph 13.0 mph 84 % 0.00 in
21:15 81.0 °F 75.7 °F 29.64 in South 4.0 mph 13.0 mph 84 % 0.00 in
21:20 80.8 °F 75.6 °F 29.64 in SSE 10.0 mph 14.0 mph 84 % 0.00 in
21:25 81.0 °F 75.7 °F 29.65 in SSE 2.0 mph 14.0 mph 84 % 0.00 in
21:30 80.8 °F 75.9 °F 29.65 in SSW 5.0 mph 14.0 mph 85 % 0.00 in
21:35 80.4 °F 75.6 °F 29.66 in South 5.0 mph 14.0 mph 85 % 0.00 in
21:40 80.4 °F 75.6 °F 29.66 in SSE 5.0 mph 11.0 mph 85 % 0.00 in
21:45 80.4 °F 75.9 °F 29.66 in SE 3.0 mph 11.0 mph 86 % 0.00 in
21:46 80.4 °F 75.9 °F 29.66 in ESE 2.0 mph 11.0 mph 86 % 0.00 in
21:51 80.2 °F 75.7 °F 29.66 in SSE 4.0 mph 11.0 mph 86 % 0.00 in
21:56 80.1 °F 75.9 °F 29.66 in SW 8.0 mph 11.0 mph 87 % 0.00 in
22:01 79.9 °F 75.7 °F 29.66 in SSE 4.0 mph 11.0 mph 87 % 0.00 in
22:06 79.7 °F 75.7 °F 29.66 in SSW 8.0 mph 9.0 mph 88 % 0.00 in
22:11 79.5 °F 75.6 °F 29.67 in SSW 4.0 mph 9.0 mph 88 % 0.00 in
22:16 79.3 °F 75.7 °F 29.67 in South 3.0 mph 9.0 mph 89 % 0.00 in
22:21 79.3 °F 75.7 °F 29.67 in SSW 3.0 mph 9.0 mph 89 % 0.00 in
22:26 79.2 °F 75.9 °F 29.67 in South 4.0 mph 7.0 mph 90 % 0.00 in
22:31 79.2 °F 75.9 °F 29.68 in South 5.0 mph 8.0 mph 90 % 0.00 in
22:36 79.2 °F 75.9 °F 29.68 in SSE 2.0 mph 8.0 mph 90 % 0.00 in
22:41 79.3 °F 76.1 °F 29.68 in ESE 5.0 mph 8.0 mph 90 % 0.00 in
22:46 79.3 °F 76.1 °F 29.68 in SE 7.0 mph 10.0 mph 90 % 0.00 in
22:51 79.3 °F 76.1 °F 29.67 in ESE 8.0 mph 12.0 mph 90 % 0.00 in
22:56 79.2 °F 75.9 °F 29.67 in SSE 6.0 mph 14.0 mph 90 % 0.00 in
23:01 79.2 °F 75.9 °F 29.68 in SE 7.0 mph 14.0 mph 90 % 0.00 in
23:06 79.2 °F 75.9 °F 29.68 in SE 10.0 mph 14.0 mph 90 % 0.00 in
23:11 79.2 °F 75.9 °F 29.68 in South 5.0 mph 14.0 mph 90 % 0.00 in
23:16 79.2 °F 75.9 °F 29.67 in South 11.0 mph 14.0 mph 90 % 0.00 in
23:21 79.2 °F 75.9 °F 29.68 in SE 6.0 mph 14.0 mph 90 % 0.00 in
23:26 79.2 °F 75.9 °F 29.69 in SSE 7.0 mph 14.0 mph 90 % 0.00 in
23:31 79.2 °F 75.9 °F 29.71 in SW 3.0 mph 14.0 mph 90 % 0.00 in
23:36 79.2 °F 76.3 °F 29.73 in North 5.0 mph 11.0 mph 91 % 0.00 in
23:41 75.7 °F 69.1 °F 29.74 in West 7.0 mph 17.0 mph 80 % 0.00 in
23:46 71.6 °F 64.0 °F 29.75 in NW 8.0 mph 20.0 mph 77 % 0.00 in
23:51 69.3 °F 62.8 °F 29.76 in North 9.0 mph 20.0 mph 80 % 0.00 in
23:56 67.6 °F 62.2 °F 29.78 in WNW 13.0 mph 20.0 mph 83 % 0.00 in
Spring, Texas: Villages of Bridgestone
Compliments of Weather Underground - 3 mb

Script developed by  Jim McMurry - jmcmurry@mwt.net Adapted for the template by  Wim van der Kuil - Leuven-Template.eu

You find our weather info also at:

UK Metoffice

WeatherCloud

Weather Underground

Mid-South Weather Network

AWEKAS

Citizen Weather Observer Program (CWOP)

HAMweather, WeatherForYou, PWS Weather

Equipment we use:

Weather-station
Davis Vantage Vue

Weather-program
Meteohub

Weather-server
Debian 7.9 x86 (Guest)

Provider
DreamHost

Davis Vantage Vue

Meteohub

Debian 7.9 x86 (Guest)

DreamHost